Regional Weather Roundup
Issued by NWS Jackson, KY

Home | Current Version | Previous Version | Text Only | Print | Product List | Glossary On
Versions: 1 2 3 4 5 6 7 8 9 10 11 12 13 14 15 16 17 18 19 20 21 22 23 24 25 26 27 28 29 30 31 32 33 34 35 36 37 38 39 40 41 42 43 44 45 46 47 48 49 50
000
ASUS43 KJKL 212310
RWRJKL

EAST KENTUCKY HOURLY WEATHER ROUNDUP
NATIONAL WEATHER SERVICE JACKSON KY
700 PM EDT FRI JUL 21 2017

NOTE: "FAIR" INDICATES FEW OR NO CLOUDS BELOW 12,000 FEET WITH
NO SIGNIFICANT WEATHER AND/OR OBSTRUCTIONS TO VISIBILITY.

* THESE REPORTS ARE NOT UNDER NWS QUALITY CONTROL AND MAY NOT
  REPORT WEATHER SUCH AS PRECIPITATION AND FOG.

KYZ079-080-083-085-087-088-110-112-115-119-120-220000
...EASTERN KENTUCKY...

CITY           SKY/WX    TMP DP  RH WIND       PRES   REMARKS
JACKSON          N/A     90  73  57 W5        30.02S HX  98
LONDON           N/A     91  69  48 W8        30.01S HX  96
SOMERSET*        N/A     90  68  48 W7        30.01S HX  93
MONTICELLO*    PTSUNNY   90  76  63 W14       30.02S HX 101
WILLIAMSBURG*    N/A     91  72  52 CALM      30.01S HX  98
MIDDLESBORO*     N/A     91  73  55 CALM      30.01S HX  99
HARLAN APT*      N/A     90  68  48 SW3       30.03S HX  93
PIKE CO APT*     N/A     87  72  59 W5        30.02S HX  93
BIG SANDY APT* CLOUDY    88  76  68 NE3       30.00F HX  98
MOREHEAD APT*    N/A     90  72  55 SW6       30.00S HX  96
ASHLAND*         N/A    N/A N/A N/A MISG        N/A
$$

KYZ035-036-041-042-044-050-067-078-099-220000
...CENTRAL KENTUCKY...

CITY           SKY/WX    TMP DP  RH WIND       PRES   REMARKS
MT STERLING*     N/A     90  73  58 CALM      30.00S HX  98
FLEMING/MASON* CLOUDY    88  76  68 S5        29.98F HX  99
DANVILLE*        N/A     91  70  49 SW5       30.00F HX  97
LEXINGTON        N/A     92  72  51 W6        29.98F HX  99
FRANKFORT        N/A     92  70  48 SW8       29.95F HX  97
LOUISVILLE       N/A     95  73  48 SW7       29.92F HX 104
LEBANON*         N/A     91  72  52 SW5       29.98S HX  98
GLASGOW*         N/A     93  71  47 SW5       29.97F HX  99
BOWLING GREEN    N/A     95  71  45 SW10      29.96S HX 102
$$

KYZ091>093-OHZ055-061-077-WVZ005-015-034-035-042-220000
...SOUTHERN OHIO/WEST VIRGINIA...

CITY           SKY/WX    TMP DP  RH WIND       PRES   REMARKS
COVINGTON        N/A     90  79  70 W7        29.95F HX 106
COLUMBUS         N/A     84  73  69 W7        29.97S HX  90
DAYTON         LGT RAIN  77  74  90 N7        30.01R
WILMINGTON       N/A     84  73  69 W8        29.99S HX  90
HUNTINGTON       N/A     84  72  67 NE5       29.98F
CHARLESTON     PTSUNNY   83  68  60 W5        29.99F
PINEVILLE*       N/A     82  72  71 MISG      30.08F
BECKLEY          N/A     82  63  52 NW8       30.09S
BLUEFIELD        N/A     82  64  54 NW7       30.11S
LOGAN CO APT*    N/A     82  72  69 CALM      30.03F
$$

VAZ002-007-008-TNZ017-027-036-066-071-220000
...SOUTHWEST VIRGINIA/EAST TENNESSEE...

CITY           SKY/WX    TMP DP  RH WIND       PRES   REMARKS
WISE*          PTSUNNY   86  66  51 W8        30.11S
JONESVILLE*      N/A     91  68  46 W5        30.04R HX  95
ABINGDON*        N/A     88  70  55 S8        30.06F HX  92
BRISTOL          N/A     90  65  43 S5        30.02F HX  92
MORRISTOWN*    CLEAR     90  70  51 N8        30.00F HX  95
SEVIERVILLE*   CLEAR     93  64  38 NE6       29.98F HX  95
KNOXVILLE      PTSUNNY   93  66  40 N6        29.98S HX  96
LAFOLLETTE*    PTCLDY    91  75  59 CALM      30.04S HX 102
OAK RIDGE        N/A     93  69  45 CALM      30.00F HX  98
CROSSVILLE       N/A     87  71  58 W6        30.06F HX  93
NASHVILLE      PTSUNNY   94  70  45 SW3       29.97F HX 100
$$

...KEY TO REMARKS...
VSB - VISIBILITY IN MILES
WCI - WIND CHILL INDEX
HX  - HEAT INDEX

$$



USA.gov is the U.S. government's official web portal to all federal, state and local government web resources and services.